,,,PA_Meas_PMT16A,,PR_Meas_QMR101_102,,RH_Meas_QMH101,,SR_Meas_QMS101,,TA_Meas_QMH101,,GenWind,,GenWind,
date,time,status,PA,status,PR,status,RH,status,SR,status,TA,status,DirAvg,status,SpdAvg,
2011-01-31, 00:00:05,VALID,999.587,VALID,0,VALID,93.3637,VALID,0,VALID,23.5451,VALID,141,VALID,0.622266,
2011-01-31, 00:01:05,VALID,999.566,VALID,0,VALID,93.3789,VALID,0,VALID,23.5238,VALID,141,VALID,0.434375,
2011-01-31, 00:02:05,VALID,999.584,VALID,0,VALID,93.3789,VALID,0,VALID,23.5238,VALID,141,VALID,0.256641,
2011-01-31, 00:03:05,VALID,999.604,VALID,0,VALID,93.3713,VALID,0.112286,VALID,23.5433,VALID,141,VALID,0.267578,
2011-01-31, 00:04:05,VALID,999.58,VALID,0,VALID,93.3637,VALID,0,VALID,23.5646,VALID,141,VALID,0.0988281,
2011-01-31, 00:05:05,VALID,999.603,VALID,0,VALID,93.3713,VALID,0,VALID,23.5841,VALID,141,VALID,0.046875,
2011-01-31, 00:06:05,VALID,999.613,VALID,0,VALID,93.356,VALID,0,VALID,23.5646,VALID,141,VALID,0,
2011-01-31, 00:07:05,VALID,999.586,VALID,0,VALID,93.356,VALID,0,VALID,23.5628,VALID,141,VALID,0,
2011-01-31, 00:08:05,VALID,999.567,VALID,0,VALID,93.3484,VALID,0,VALID,23.5628,VALID,141,VALID,0,
2011-01-31, 00:09:05,VALID,999.55,VALID,0,VALID,93.356,VALID,0,VALID,23.5628,VALID,141,VALID,0.397656,
2011-01-31, 00:10:04,VALID,999.541,VALID,0,VALID,93.3484,VALID,0,VALID,23.5646,VALID,141,VALID,0.0257812,
2011-01-31, 00:11:04,VALID,999.506,VALID,0,VALID,93.3713,VALID,0,VALID,23.5646,VALID,141,VALID,0,
2011-01-31, 00:12:04,VALID,999.489,VALID,0,VALID,93.3789,VALID,0,VALID,23.5256,VALID,141,VALID,0,
2011-01-31, 00:13:04,VALID,999.509,VALID,0,VALID,93.3713,VALID,0,VALID,23.5451,VALID,141,VALID,0,
2011-01-31, 00:14:04,VALID,999.484,VALID,0,VALID,93.356,VALID,0,VALID,23.5664,VALID,141,VALID,0,
2011-01-31, 00:15:04,VALID,999.494,VALID,0,VALID,93.3637,VALID,0,VALID,23.5451,VALID,141,VALID,0,
2011-01-31, 00:16:04,VALID,999.456,VALID,0,VALID,93.356,VALID,0,VALID,23.5646,VALID,141,VALID,0,
2011-01-31, 00:17:04,VALID,999.451,VALID,0,VALID,93.3637,VALID,0,VALID,23.5646,VALID,141,VALID,0,
2011-01-31, 00:18:04,VALID,999.423,VALID,0,VALID,93.3866,VALID,0,VALID,23.5646,VALID,141,VALID,0,
2011-01-31, 00:19:04,VALID,999.401,VALID,0,VALID,93.356,VALID,0,VALID,23.5646,VALID,141,VALID,0,
2011-01-31, 00:20:04,VALID,999.384,VALID,0,VALID,93.3637,VALID,0,VALID,23.5433,VALID,141,VALID,0,
2011-01-31, 00:21:04,VALID,999.366,VALID,0,VALID,93.3713,VALID,0,VALID,23.5646,VALID,141,VALID,0,
2011-01-31, 00:22:04,VALID,999.373,VALID,0,VALID,93.3713,VALID,0,VALID,23.5451,VALID,141,VALID,0,
2011-01-31, 00:23:04,VALID,999.319,VALID,0,VALID,93.3637,VALID,0,VALID,23.5451,VALID,141,VALID,0,
2011-01-31, 00:24:04,VALID,999.313,VALID,0,VALID,93.3637,VALID,0,VALID,23.5238,VALID,141,VALID,0,
2011-01-31, 00:25:04,VALID,999.283,VALID,0,VALID,93.3866,VALID,0,VALID,23.5451,VALID,141,VALID,0,
2011-01-31, 00:26:04,VALID,999.255,VALID,0,VALID,93.3866,VALID,0,VALID,23.5451,VALID,141,VALID,0,
2011-01-31, 00:27:04,VALID,999.234,VALID,0,VALID,93.3637,VALID,0,VALID,23.5451,VALID,141,VALID,0,
2011-01-31, 00:28:04,VALID,999.229,VALID,0,VALID,93.356,VALID,0,VALID,23.5646,VALID,141,VALID,0,
2011-01-31, 00:29:04,VALID,999.195,VALID,0,VALID,93.3637,VALID,0,VALID,23.6054,VALID,141,VALID,0,
2011-01-31, 00:30:04,VALID,999.177,VALID,0,VALID,93.3866,VALID,0,VALID,23.5646,VALID,141,VALID,0,
2011-01-31, 00:31:04,VALID,999.155,VALID,0,VALID,93.3713,VALID,0,VALID,23.5646,VALID,141,VALID,0,
2011-01-31, 00:32:04,VALID,999.174,VALID,0,VALID,93.3789,VALID,0,VALID,23.5646,VALID,141,VALID,0,
2011-01-31, 00:33:04,VALID,999.147,VALID,0,VALID,93.3789,VALID,0,VALID,23.5646,VALID,141,VALID,0,
2011-01-31, 00:34:04,VALID,999.094,VALID,0,VALID,93.3866,VALID,0,VALID,23.5841,VALID,141,VALID,0,
2011-01-31, 00:35:04,VALID,999.088,VALID,0,VALID,93.3713,VALID,0,VALID,23.5841,VALID,141,VALID,0,
2011-01-31, 00:36:04,VALID,999.071,VALID,0,VALID,93.3789,VALID,0,VALID,23.5841,VALID,141,VALID,0,
2011-01-31, 00:37:04,VALID,999.072,VALID,0,VALID,93.3713,VALID,0,VALID,23.5841,VALID,141,VALID,0,
2011-01-31, 00:38:04,VALID,999.009,VALID,0,VALID,93.3713,VALID,0,VALID,23.5628,VALID,141,VALID,0,
2011-01-31, 00:39:04,VALID,999.042,VALID,0,VALID,93.3789,VALID,0,VALID,23.5841,VALID,141,VALID,0,
2011-01-31, 00:40:04,VALID,999.02,VALID,0,VALID,93.3713,VALID,0,VALID,23.5433,VALID,141,VALID,0,
2011-01-31, 00:41:04,VALID,998.992,VALID,0,VALID,93.3789,VALID,0,VALID,23.5646,VALID,141,VALID,0,
2011-01-31, 00:42:04,VALID,998.973,VALID,0,VALID,93.3713,VALID,0,VALID,23.5646,VALID,141,VALID,0,
2011-01-31, 00:43:04,VALID,998.953,VALID,0,VALID,93.3637,VALID,0,VALID,23.5841,VALID,126,VALID,0.496875,
2011-01-31, 00:44:04,VALID,998.942,VALID,0,VALID,93.3789,VALID,0,VALID,23.5646,VALID,118,VALID,0.280469,
2011-01-31, 00:45:04,VALID,998.937,VALID,0,VALID,93.3713,VALID,0,VALID,23.5646,VALID,118,VALID,0.383594,
2011-01-31, 00:46:04,VALID,998.949,VALID,0,VALID,93.3789,VALID,0,VALID,23.5646,VALID,49,VALID,0.727734,
2011-01-31, 00:47:04,VALID,998.928,VALID,0,VALID,93.3942,VALID,0,VALID,23.5646,VALID,19,VALID,0.964453,
2011-01-31, 00:48:04,VALID,998.938,VALID,0,VALID,93.3866,VALID,0,VALID,23.5451,VALID,15,VALID,0.866406,
2011-01-31, 00:49:04,VALID,998.931,VALID,0,VALID,93.4018,VALID,0,VALID,23.5451,VALID,15,VALID,0.614844,
2011-01-31, 00:50:04,VALID,998.908,VALID,0,VALID,93.3942,VALID,0,VALID,23.5451,VALID,15,VALID,0.454688,
2011-01-31, 00:51:04,VALID,998.899,VALID,0,VALID,93.3942,VALID,0,VALID,23.5451,VALID,15,VALID,0.344922,
2011-01-31, 00:52:04,VALID,998.903,VALID,0,VALID,93.3789,VALID,0,VALID,23.5451,VALID,15,VALID,0.154297,
2011-01-31, 00:53:04,VALID,998.893,VALID,0,VALID,93.3713,VALID,0,VALID,23.5451,VALID,15,VALID,0.638672,
2011-01-31, 00:54:04,VALID,998.881,VALID,0,VALID,93.3713,VALID,0,VALID,23.5646,VALID,19,VALID,0.626172,
2011-01-31, 00:55:04,VALID,998.862,VALID,0,VALID,93.3713,VALID,0,VALID,23.5646,VALID,35,VALID,1.12266,
2011-01-31, 00:56:04,VALID,998.829,VALID,0,VALID,93.3866,VALID,0,VALID,23.5646,VALID,45,VALID,0.912109,
2011-01-31, 00:57:04,VALID,998.845,VALID,0,VALID,93.4018,VALID,0,VALID,23.5841,VALID,44,VALID,1.0375,
2011-01-31, 00:58:04,VALID,998.842,VALID,0,VALID,93.3866,VALID,0,VALID,23.5841,VALID,44,VALID,0.790234,
2011-01-31, 00:59:04,VALID,998.815,VALID,0,VALID,93.3713,VALID,0,VALID,23.5841,VALID,44,VALID,0.773438,
2011-01-31, 01:00:04,VALID,998.813,VALID,0,VALID,93.3942,VALID,0,VALID,23.6054,VALID,45,VALID,0.716016,
2011-01-31, 01:01:04,VALID,998.794,VALID,0,VALID,93.3866,VALID,0,VALID,23.5841,VALID,63,VALID,0.789844,
2011-01-31, 01:02:04,VALID,998.761,VALID,0,VALID,93.3713,VALID,0,VALID,23.5646,VALID,64,VALID,0.439453,
2011-01-31, 01:03:04,VALID,998.735,VALID,0,VALID,93.3866,VALID,0,VALID,23.5451,VALID,64,VALID,0.663281,
2011-01-31, 01:04:04,VALID,998.717,VALID,0,VALID,93.3866,VALID,0,VALID,23.5451,VALID,107,VALID,1.07422,
2011-01-31, 01:05:04,VALID,998.702,VALID,0,VALID,93.3789,VALID,0,VALID,23.5451,VALID,103,VALID,0.631641,
2011-01-31, 01:06:04,VALID,998.694,VALID,0,VALID,93.3942,VALID,0,VALID,23.5061,VALID,101,VALID,0.450391,
2011-01-31, 01:07:04,VALID,998.672,VALID,0,VALID,93.3789,VALID,0,VALID,23.5061,VALID,94,VALID,0.801172,
2011-01-31, 01:08:04,VALID,998.638,VALID,0,VALID,93.3942,VALID,0,VALID,23.5061,VALID,78,VALID,0.519531,
2011-01-31, 01:09:04,VALID,998.611,VALID,0,VALID,93.3942,VALID,0,VALID,23.4866,VALID,78,VALID,0.55625,
2011-01-31, 01:10:04,VALID,998.58,VALID,0,VALID,93.4247,VALID,0,VALID,23.4671,VALID,78,VALID,0.503516,
2011-01-31, 01:11:04,VALID,998.607,VALID,0,VALID,93.3942,VALID,0,VALID,23.4475,VALID,78,VALID,0.208203,
2011-01-31, 01:12:04,VALID,998.563,VALID,0,VALID,93.4018,VALID,0,VALID,23.4067,VALID,78,VALID,0,
2011-01-31, 01:13:04,VALID,998.558,VALID,0,VALID,93.4018,VALID,0,VALID,23.4085,VALID,78,VALID,0,
2011-01-31, 01:14:04,VALID,998.555,VALID,0,VALID,93.4247,VALID,0,VALID,23.3872,VALID,78,VALID,0,
2011-01-31, 01:15:04,VALID,998.542,VALID,0,VALID,93.4171,VALID,0,VALID,23.4085,VALID,78,VALID,0.388281,
2011-01-31, 01:16:04,VALID,998.489,VALID,0,VALID,93.4018,VALID,0,VALID,23.428,VALID,78,VALID,0.808203,
2011-01-31, 01:17:04,VALID,998.499,VALID,0,VALID,93.4171,VALID,0,VALID,23.4263,VALID,78,VALID,0.749219,
2011-01-31, 01:18:04,VALID,998.523,VALID,0,VALID,93.4094,VALID,0,VALID,23.428,VALID,78,VALID,0.742578,
2011-01-31, 01:19:04,VALID,998.55,VALID,0,VALID,93.4094,VALID,0,VALID,23.3872,VALID,78,VALID,0.625,
2011-01-31, 01:20:04,VALID,998.545,VALID,0,VALID,93.3942,VALID,0,VALID,23.4067,VALID,74,VALID,0.715234,
2011-01-31, 01:21:04,VALID,998.558,VALID,0,VALID,93.3942,VALID,0,VALID,23.4067,VALID,56,VALID,0.807031,
2011-01-31, 01:22:04,VALID,998.552,VALID,0,VALID,93.4094,VALID,0,VALID,23.4085,VALID,56,VALID,0.78125,
2011-01-31, 01:23:04,VALID,998.562,VALID,0,VALID,93.4094,VALID,0,VALID,23.3677,VALID,56,VALID,0.568359,
2011-01-31, 01:24:04,VALID,998.56,VALID,0,VALID,93.4018,VALID,0,VALID,23.3677,VALID,56,VALID,0.247656,
2011-01-31, 01:25:04,VALID,998.555,VALID,0,VALID,93.4094,VALID,0,VALID,23.389,VALID,56,VALID,0.246484,
2011-01-31, 01:26:04,VALID,998.575,VALID,0,VALID,93.4018,VALID,0,VALID,23.389,VALID,56,VALID,0.210938,
2011-01-31, 01:27:04,VALID,998.574,VALID,0,VALID,93.4171,VALID,0,VALID,23.3872,VALID,56,VALID,0.121875,
2011-01-31, 01:28:04,VALID,998.54,VALID,0,VALID,93.4323,VALID,0,VALID,23.389,VALID,56,VALID,0.489062,
2011-01-31, 01:29:04,VALID,998.562,VALID,0,VALID,93.4018,VALID,0,VALID,23.3872,VALID,47,VALID,0.608203,
2011-01-31, 01:30:04,VALID,998.549,VALID,0,VALID,93.4247,VALID,0,VALID,23.428,VALID,47,VALID,0.372266,
2011-01-31, 01:31:04,VALID,998.578,VALID,0,VALID,93.4171,VALID,0,VALID,23.3872,VALID,47,VALID,0.189063,
2011-01-31, 01:32:04,VALID,998.522,VALID,0,VALID,93.4247,VALID,0,VALID,23.428,VALID,47,VALID,0,
2011-01-31, 01:33:04,VALID,998.527,VALID,0,VALID,93.4247,VALID,0,VALID,23.428,VALID,47,VALID,0.0046875,
2011-01-31, 01:34:04,VALID,998.546,VALID,0,VALID,93.4094,VALID,0,VALID,23.428,VALID,47,VALID,0.104687,
2011-01-31, 01:35:04,VALID,998.511,VALID,0,VALID,93.4247,VALID,0,VALID,23.428,VALID,47,VALID,0.361719,
2011-01-31, 01:36:04,VALID,998.49,VALID,0,VALID,93.4171,VALID,0,VALID,23.428,VALID,47,VALID,0.432031,
2011-01-31, 01:37:04,VALID,998.481,VALID,0,VALID,93.4094,VALID,0,VALID,23.4263,VALID,339,VALID,0.679688,
2011-01-31, 01:38:04,VALID,998.469,VALID,0,VALID,93.4018,VALID,0,VALID,23.4458,VALID,338,VALID,0.735547,
2011-01-31, 01:39:04,VALID,998.454,VALID,0,VALID,93.4094,VALID,0,VALID,23.4458,VALID,338,VALID,0.447266,
2011-01-31, 01:40:04,VALID,998.422,VALID,0,VALID,93.4094,VALID,0,VALID,23.4671,VALID,338,VALID,0.295312,
2011-01-31, 01:41:04,VALID,998.397,VALID,0,VALID,93.4171,VALID,0,VALID,23.4671,VALID,338,VALID,0.0355469,
2011-01-31, 01:42:04,VALID,998.404,VALID,0,VALID,93.4171,VALID,0,VALID,23.4671,VALID,338,VALID,0,
2011-01-31, 01:43:04,VALID,998.36,VALID,0,VALID,93.4094,VALID,0,VALID,23.4653,VALID,338,VALID,0.259375,
2011-01-31, 01:44:04,VALID,998.345,VALID,0,VALID,93.4094,VALID,0,VALID,23.4671,VALID,338,VALID,0.514063,
2011-01-31, 01:45:04,VALID,998.3,VALID,0,VALID,93.4247,VALID,0,VALID,23.4475,VALID,338,VALID,0.515625,
2011-01-31, 01:46:04,VALID,998.327,VALID,0,VALID,93.4247,VALID,0,VALID,23.4458,VALID,338,VALID,0.344141,
2011-01-31, 01:47:04,VALID,998.362,VALID,0,VALID,93.4094,VALID,0,VALID,23.4671,VALID,338,VALID,0.314844,
2011-01-31, 01:48:04,VALID,998.359,VALID,0,VALID,93.4094,VALID,0,VALID,23.4458,VALID,338,VALID,0.271875,
2011-01-31, 01:49:04,VALID,998.35,VALID,0,VALID,93.4018,VALID,0,VALID,23.4866,VALID,338,VALID,0.219922,
2011-01-31, 01:50:04,VALID,998.334,VALID,0,VALID,93.4094,VALID,0,VALID,23.4458,VALID,338,VALID,0.297266,
2011-01-31, 01:51:04,VALID,998.317,VALID,0,VALID,93.4247,VALID,0,VALID,23.4653,VALID,86,VALID,0.834766,
2011-01-31, 01:52:04,VALID,998.273,VALID,0,VALID,93.4171,VALID,0,VALID,23.4653,VALID,127,VALID,1.0832,
2011-01-31, 01:53:04,VALID,998.234,VALID,0,VALID,93.4094,VALID,0,VALID,23.4671,VALID,115,VALID,1.33984,
2011-01-31, 01:54:04,VALID,998.231,VALID,0,VALID,93.4171,VALID,0,VALID,23.4671,VALID,115,VALID,0.805078,
2011-01-31, 01:55:04,VALID,998.202,VALID,0,VALID,93.4171,VALID,0,VALID,23.4671,VALID,131,VALID,0.91875,
2011-01-31, 01:56:04,VALID,998.201,VALID,0,VALID,93.4018,VALID,0,VALID,23.4475,VALID,142,VALID,0.535937,
2011-01-31, 01:57:04,VALID,998.227,VALID,0,VALID,93.4171,VALID,0,VALID,23.4475,VALID,142,VALID,0.119141,
2011-01-31, 01:58:04,VALID,998.204,VALID,0,VALID,93.4094,VALID,0.112286,VALID,23.4458,VALID,218,VALID,0.754687,
2011-01-31, 01:59:04,VALID,998.198,VALID,0,VALID,93.4094,VALID,0,VALID,23.4866,VALID,219,VALID,0.804688,
2011-01-31, 02:00:04,VALID,998.213,VALID,0,VALID,93.3866,VALID,0,VALID,23.5256,VALID,219,VALID,0.616016,
2011-01-31, 02:01:04,VALID,998.188,VALID,0,VALID,93.3866,VALID,0,VALID,23.5061,VALID,219,VALID,0.370313,
2011-01-31, 02:02:04,VALID,998.145,VALID,0,VALID,93.4094,VALID,0,VALID,23.5256,VALID,215,VALID,0.602344,
2011-01-31, 02:03:04,VALID,998.143,VALID,0,VALID,93.4171,VALID,0,VALID,23.5256,VALID,191,VALID,0.744531,
2011-01-31, 02:04:04,VALID,998.154,VALID,0,VALID,93.4018,VALID,0,VALID,23.5238,VALID,191,VALID,0.814453,
2011-01-31, 02:05:04,VALID,998.154,VALID,0,VALID,93.3942,VALID,0,VALID,23.5433,VALID,191,VALID,0.713672,
2011-01-31, 02:06:04,VALID,998.17,VALID,0,VALID,93.3942,VALID,0,VALID,23.6036,VALID,206,VALID,0.580469,
2011-01-31, 02:07:04,VALID,998.164,VALID,0,VALID,93.4018,VALID,0,VALID,23.5628,VALID,254,VALID,0.573438,
2011-01-31, 02:08:04,VALID,998.147,VALID,0,VALID,93.3866,VALID,0,VALID,23.5841,VALID,254,VALID,0.479297,
2011-01-31, 02:09:04,VALID,998.18,VALID,0,VALID,93.3866,VALID,0,VALID,23.5628,VALID,254,VALID,0.453125,
2011-01-31, 02:10:04,VALID,998.172,VALID,0,VALID,93.3789,VALID,0,VALID,23.5628,VALID,254,VALID,0.18125,
2011-01-31, 02:11:04,VALID,998.165,VALID,0,VALID,93.3942,VALID,0,VALID,23.5646,VALID,254,VALID,0,
2011-01-31, 02:12:04,VALID,998.131,VALID,0.5,VALID,93.3789,VALID,0,VALID,23.5433,VALID,254,VALID,0.383203,
2011-01-31, 02:13:04,VALID,998.127,VALID,0,VALID,93.4094,VALID,0,VALID,23.5841,VALID,254,VALID,0.610937,
2011-01-31, 02:14:04,VALID,998.127,VALID,0,VALID,93.3866,VALID,0,VALID,23.5646,VALID,254,VALID,0.482812,
2011-01-31, 02:15:04,VALID,998.125,VALID,0.5,VALID,93.3866,VALID,0,VALID,23.5451,VALID,254,VALID,0.679688,
2011-01-31, 02:16:04,VALID,998.087,VALID,0,VALID,93.4094,VALID,0,VALID,23.5256,VALID,259,VALID,0.478125,
2011-01-31, 02:17:04,VALID,998.062,VALID,0,VALID,93.3942,VALID,0,VALID,23.5061,VALID,259,VALID,0.465625,
2011-01-31, 02:18:04,VALID,998.047,VALID,0,VALID,93.4018,VALID,0,VALID,23.5043,VALID,233,VALID,0.575781,
2011-01-31, 02:19:04,VALID,998.019,VALID,0,VALID,93.3866,VALID,0,VALID,23.5061,VALID,229,VALID,0.527734,
2011-01-31, 02:20:04,VALID,998.026,VALID,0,VALID,93.4094,VALID,0,VALID,23.5469,VALID,229,VALID,0.401563,
2011-01-31, 02:21:04,VALID,997.991,VALID,0,VALID,93.3942,VALID,0,VALID,23.5256,VALID,227,VALID,0.625,
2011-01-31, 02:22:04,VALID,997.968,VALID,0,VALID,93.4247,VALID,0,VALID,23.5451,VALID,221,VALID,0.396484,
2011-01-31, 02:23:04,VALID,997.935,VALID,0,VALID,93.3942,VALID,0,VALID,23.5256,VALID,210,VALID,0.887109,
2011-01-31, 02:24:04,VALID,997.858,VALID,0,VALID,93.4018,VALID,0,VALID,23.5451,VALID,204,VALID,0.715625,
2011-01-31, 02:25:04,VALID,997.871,VALID,0,VALID,93.3942,VALID,0,VALID,23.5646,VALID,204,VALID,0.990234,
2011-01-31, 02:26:04,VALID,997.815,VALID,0,VALID,93.3866,VALID,0,VALID,23.6036,VALID,204,VALID,0.953125,
2011-01-31, 02:27:04,VALID,997.828,VALID,0.5,VALID,93.4018,VALID,0,VALID,23.6036,VALID,196,VALID,0.978125,
2011-01-31, 02:28:04,VALID,997.814,VALID,0,VALID,93.3866,VALID,0,VALID,23.6232,VALID,184,VALID,1.05977,
2011-01-31, 02:29:04,VALID,997.816,VALID,0,VALID,93.3713,VALID,0,VALID,23.6232,VALID,174,VALID,0.719141,
2011-01-31, 02:30:04,VALID,997.836,VALID,0,VALID,93.3866,VALID,0,VALID,23.6427,VALID,174,VALID,0.659375,
2011-01-31, 02:31:04,VALID,997.872,VALID,0,VALID,93.4018,VALID,0,VALID,23.6622,VALID,174,VALID,0.716406,
2011-01-31, 02:32:04,VALID,997.904,VALID,0,VALID,93.3866,VALID,0,VALID,23.6622,VALID,174,VALID,0.545313,
2011-01-31, 02:33:04,VALID,997.947,VALID,0,VALID,93.3942,VALID,0,VALID,23.6622,VALID,146,VALID,0.747266,
2011-01-31, 02:34:04,VALID,997.983,VALID,0,VALID,93.3866,VALID,0,VALID,23.6232,VALID,130,VALID,0.792188,
2011-01-31, 02:35:04,VALID,997.992,VALID,0,VALID,93.3866,VALID,0,VALID,23.5823,VALID,130,VALID,0.70625,
2011-01-31, 02:36:04,VALID,998.035,VALID,0,VALID,93.3866,VALID,0,VALID,23.5628,VALID,71,VALID,0.932422,
2011-01-31, 02:37:04,VALID,998.071,VALID,0,VALID,93.3866,VALID,0,VALID,23.5451,VALID,61,VALID,0.981641,
2011-01-31, 02:38:04,VALID,998.117,VALID,0,VALID,93.3942,VALID,0,VALID,23.5256,VALID,45,VALID,1.06836,
2011-01-31, 02:39:04,VALID,998.149,VALID,0,VALID,93.4018,VALID,0,VALID,23.5256,VALID,45,VALID,0.905078,
2011-01-31, 02:40:04,VALID,998.145,VALID,0,VALID,93.4018,VALID,0,VALID,23.5061,VALID,45,VALID,0.704687,
2011-01-31, 02:41:04,VALID,998.141,VALID,0,VALID,93.4094,VALID,0,VALID,23.5061,VALID,45,VALID,0.647656,
2011-01-31, 02:42:04,VALID,998.16,VALID,0,VALID,93.4018,VALID,0,VALID,23.5256,VALID,45,VALID,0.3375,
2011-01-31, 02:43:04,VALID,998.127,VALID,0,VALID,93.3942,VALID,0,VALID,23.5256,VALID,49,VALID,0.498437,
2011-01-31, 02:44:04,VALID,998.15,VALID,0,VALID,93.4018,VALID,0,VALID,23.5256,VALID,11,VALID,0.730859,
2011-01-31, 02:45:04,VALID,998.099,VALID,0,VALID,93.4094,VALID,0,VALID,23.5451,VALID,311,VALID,0.408984,
2011-01-31, 02:46:04,VALID,998.109,VALID,0,VALID,93.4094,VALID,0,VALID,23.5451,VALID,311,VALID,0.084375,
2011-01-31, 02:47:04,VALID,998.091,VALID,0,VALID,93.3942,VALID,0,VALID,23.5451,VALID,311,VALID,0.109375,
2011-01-31, 02:48:04,VALID,998.041,VALID,0,VALID,93.3866,VALID,0,VALID,23.5646,VALID,311,VALID,0,
2011-01-31, 02:49:04,VALID,998.022,VALID,0,VALID,93.4018,VALID,0,VALID,23.5646,VALID,311,VALID,0.125,
2011-01-31, 02:50:04,VALID,998.067,VALID,0,VALID,93.4018,VALID,0,VALID,23.5841,VALID,311,VALID,0.384375,
2011-01-31, 02:51:04,VALID,998.054,VALID,0,VALID,93.3789,VALID,0,VALID,23.5646,VALID,311,VALID,0.118359,
2011-01-31, 02:52:04,VALID,998.029,VALID,0,VALID,93.3942,VALID,0,VALID,23.5841,VALID,311,VALID,0,
2011-01-31, 02:53:04,VALID,998.008,VALID,0,VALID,93.3866,VALID,0,VALID,23.5841,VALID,311,VALID,0.0566406,
2011-01-31, 02:54:04,VALID,997.983,VALID,0,VALID,93.3713,VALID,0,VALID,23.5646,VALID,311,VALID,0.285156,
2011-01-31, 02:55:04,VALID,997.981,VALID,0,VALID,93.3789,VALID,0,VALID,23.5646,VALID,311,VALID,0.222656,
2011-01-31, 02:56:04,VALID,997.971,VALID,0,VALID,93.3713,VALID,0,VALID,23.5433,VALID,216,VALID,0.626953,
2011-01-31, 02:57:04,VALID,997.975,VALID,0,VALID,93.3637,VALID,0,VALID,23.5841,VALID,208,VALID,0.387891,
2011-01-31, 02:58:04,VALID,998.035,VALID,0,VALID,93.3789,VALID,0,VALID,23.6036,VALID,208,VALID,0.373047,
2011-01-31, 02:59:04,VALID,998.036,VALID,0,VALID,93.3789,VALID,0,VALID,23.5823,VALID,208,VALID,0.417188,
2011-01-31, 03:00:04,VALID,998.028,VALID,0,VALID,93.3713,VALID,0,VALID,23.6036,VALID,208,VALID,0.266797,
2011-01-31, 03:01:04,VALID,998.016,VALID,0,VALID,93.3942,VALID,0,VALID,23.6232,VALID,208,VALID,0.278906,
2011-01-31, 03:02:04,VALID,998.051,VALID,0,VALID,93.3637,VALID,0,VALID,23.6232,VALID,205,VALID,0.6875,
2011-01-31, 03:03:04,VALID,998.024,VALID,0.5,VALID,93.3866,VALID,0,VALID,23.6427,VALID,199,VALID,0.642578,
2011-01-31, 03:04:04,VALID,998.052,VALID,0,VALID,93.3713,VALID,0,VALID,23.6409,VALID,195,VALID,0.544531,
2011-01-31, 03:05:04,VALID,998.042,VALID,0,VALID,93.3637,VALID,0,VALID,23.6817,VALID,167,VALID,0.994922,
2011-01-31, 03:06:04,VALID,998.031,VALID,0,VALID,93.356,VALID,0,VALID,23.6409,VALID,145,VALID,1.11289,
2011-01-31, 03:07:04,VALID,998.045,VALID,0,VALID,93.3484,VALID,0,VALID,23.6214,VALID,136,VALID,1.00508,
2011-01-31, 03:08:04,VALID,998.019,VALID,0,VALID,93.3713,VALID,0,VALID,23.6427,VALID,130,VALID,0.729297,
2011-01-31, 03:09:04,VALID,998.047,VALID,0,VALID,93.356,VALID,0,VALID,23.6622,VALID,122,VALID,0.992188,
2011-01-31, 03:10:04,VALID,998.039,VALID,0,VALID,93.3484,VALID,0,VALID,23.6232,VALID,87,VALID,0.9875,
2011-01-31, 03:11:04,VALID,998.07,VALID,0,VALID,93.356,VALID,0,VALID,23.6232,VALID,78,VALID,0.86875,
2011-01-31, 03:12:04,VALID,998.072,VALID,0,VALID,93.3484,VALID,0,VALID,23.6427,VALID,50,VALID,1.11758,
2011-01-31, 03:13:04,VALID,998.118,VALID,0,VALID,93.356,VALID,0,VALID,23.6019,VALID,30,VALID,1.48008,
2011-01-31, 03:14:04,VALID,998.152,VALID,0,VALID,93.3713,VALID,0,VALID,23.5841,VALID,10,VALID,2.17617,
2011-01-31, 03:15:04,VALID,998.172,VALID,0,VALID,93.3789,VALID,0,VALID,23.6036,VALID,9,VALID,2.45508,
2011-01-31, 03:16:04,VALID,998.159,VALID,0,VALID,93.3713,VALID,0,VALID,23.6019,VALID,7,VALID,2.26563,
2011-01-31, 03:17:04,VALID,998.141,VALID,0,VALID,93.3713,VALID,0,VALID,23.6036,VALID,3,VALID,1.95273,
2011-01-31, 03:18:04,VALID,998.145,VALID,0,VALID,93.356,VALID,0,VALID,23.5841,VALID,14,VALID,1.75937,
2011-01-31, 03:19:04,VALID,998.13,VALID,0,VALID,93.3789,VALID,0,VALID,23.5628,VALID,14,VALID,1.9625,
2011-01-31, 03:20:04,VALID,998.14,VALID,0,VALID,93.3484,VALID,0,VALID,23.5841,VALID,9,VALID,1.99297,
2011-01-31, 03:21:04,VALID,998.137,VALID,0,VALID,93.356,VALID,0,VALID,23.5841,VALID,10,VALID,1.93438,
2011-01-31, 03:22:04,VALID,998.16,VALID,0,VALID,93.356,VALID,0,VALID,23.5841,VALID,14,VALID,1.60586,
2011-01-31, 03:23:04,VALID,998.186,VALID,0,VALID,93.356,VALID,0,VALID,23.6036,VALID,357,VALID,1.35273,
2011-01-31, 03:24:04,VALID,998.197,VALID,0,VALID,93.3255,VALID,0.112286,VALID,23.6036,VALID,350,VALID,0.878906,
2011-01-31, 03:25:04,VALID,998.209,VALID,0,VALID,93.3331,VALID,0,VALID,23.6232,VALID,6,VALID,1.24258,
2011-01-31, 03:26:04,VALID,998.155,VALID,0,VALID,93.3408,VALID,0,VALID,23.6036,VALID,14,VALID,1.91445,
2011-01-31, 03:27:04,VALID,998.148,VALID,0,VALID,93.3408,VALID,0,VALID,23.6232,VALID,29,VALID,1.5625,
2011-01-31, 03:28:04,VALID,998.126,VALID,0.5,VALID,93.3408,VALID,0,VALID,23.5823,VALID,36,VALID,1.9707,
2011-01-31, 03:29:04,VALID,998.04,VALID,1,VALID,93.3331,VALID,0.112286,VALID,23.5646,VALID,27,VALID,2.37812,
2011-01-31, 03:30:04,VALID,998.01,VALID,0.5,VALID,93.3331,VALID,0,VALID,23.4866,VALID,22,VALID,1.96406,
2011-01-31, 03:31:04,VALID,998.032,VALID,0.5,VALID,93.3637,VALID,0,VALID,23.4458,VALID,24,VALID,1.82656,
2011-01-31, 03:32:04,VALID,998.041,VALID,0,VALID,93.356,VALID,0,VALID,23.428,VALID,25,VALID,1.77344,
2011-01-31, 03:33:04,VALID,998.048,VALID,0,VALID,93.3484,VALID,0,VALID,23.3872,VALID,18,VALID,1.58555,
2011-01-31, 03:34:04,VALID,998.091,VALID,0,VALID,93.3789,VALID,0,VALID,23.3482,VALID,10,VALID,0.550781,
2011-01-31, 03:35:04,VALID,998.107,VALID,0,VALID,93.3789,VALID,0,VALID,23.3305,VALID,356,VALID,0.640234,
2011-01-31, 03:36:04,VALID,998.099,VALID,0,VALID,93.3637,VALID,0,VALID,23.311,VALID,18,VALID,0.269531,
2011-01-31, 03:37:04,VALID,998.099,VALID,0,VALID,93.356,VALID,0,VALID,23.2915,VALID,18,VALID,0.273047,
2011-01-31, 03:38:04,VALID,998.066,VALID,0,VALID,93.3866,VALID,0,VALID,23.2702,VALID,317,VALID,0.670313,
2011-01-31, 03:39:04,VALID,998.05,VALID,0.5,VALID,93.3942,VALID,0,VALID,23.2719,VALID,317,VALID,0.418359,
2011-01-31, 03:40:04,VALID,998.008,VALID,0,VALID,93.3942,VALID,0,VALID,23.2915,VALID,317,VALID,0,
2011-01-31, 03:41:04,VALID,997.993,VALID,0,VALID,93.3637,VALID,0,VALID,23.2719,VALID,317,VALID,0.189453,
2011-01-31, 03:42:04,VALID,997.966,VALID,0,VALID,93.3866,VALID,0,VALID,23.2719,VALID,317,VALID,0.237109,
2011-01-31, 03:43:04,VALID,997.968,VALID,0,VALID,93.3866,VALID,0,VALID,23.2524,VALID,317,VALID,0.264453,
2011-01-31, 03:44:04,VALID,997.985,VALID,0,VALID,93.3942,VALID,0,VALID,23.2312,VALID,317,VALID,0.127344,
2011-01-31, 03:45:04,VALID,998.002,VALID,0,VALID,93.4018,VALID,0,VALID,23.2524,VALID,301,VALID,0.494531,
2011-01-31, 03:46:04,VALID,998.007,VALID,0,VALID,93.3713,VALID,0,VALID,23.2719,VALID,282,VALID,0.258984,
2011-01-31, 03:47:04,VALID,997.988,VALID,0,VALID,93.3866,VALID,0,VALID,23.2702,VALID,217,VALID,0.891016,